136  
NZUS93 KARX 121559  
HRRWXR  
 
CURRENT HOURLY OBSERVATIONS ACROSS  
MUCH OF THE UPPER MISSISSIPPI VALLEY  
NATIONAL WEATHER SERVICE LA CROSSE WI  
1000 AM CST TUE DEC 12 2017  
 
   
..SOUTHEAST MINNESOTA
 
 
 
CITY SKY/WX TMP DP RH WIND PRES REMARKS  
ROCHESTER SUNNY 10 5 80 NW10 30.16F WCI -4  
ROCHESTER/MAYO NOT AVBL  
WINONA NOT AVBL  
AUSTIN NOT AVBL  
ALBERT LEA NOT AVBL  
DODGE CENTER PTSUNNY 10 3 72 W7 30.16S WCI 0  
PRESTON SUNNY 10 5 78 NW9 30.16F WCI -3  
OWATONNA NOT AVBL  
FARIBAULT CLOUDY 12 7 79 CALM 30.20R  

 
   
..ELSEWHERE IN MINNESOTA
 
 
 
CITY SKY/WX TMP DP RH WIND PRES REMARKS  
MINNEAPOLIS PTSUNNY 12 5 73 NW6 30.19F WCI 3  
INTNL FALLS CLOUDY 3 -1 83 SW5 30.06R WCI -6  
DULUTH CLOUDY 2 -1 88 NW5 30.06F WCI -8  
RED WING SUNNY 10 0 61 NW7 30.20F WCI 0  
REDWOOD FALLS CLOUDY 18 11 74 S7 30.16F WCI 9  
MANKATO PTSUNNY 13 7 77 NW5 30.20F WCI 5  
WORTHINGTON SUNNY 19 14 81 SW10 30.18F WCI 7  
FAIRMONT SUNNY 18 11 74 W8 30.20F WCI 8  

 
   
..SOUTHWEST WISCONSIN
 
 
 
CITY SKY/WX TMP DP RH WIND PRES REMARKS  
LA CROSSE SUNNY 15 4 61 N13 30.19S WCI 1  
PRAIRIE DU CHI SUNNY 15 5 64 NW10 30.21R WCI 3  
BOSCOBEL SUNNY 17 5 59 W6 30.20R WCI 9  
LONE ROCK NOT AVBL  
PLATTEVILLE SUNNY 16 9 75 NW15 30.16R WCI 1  
FORT MC COY SUNNY 12 5 74 NW9 30.17S WCI 0  
CAMP DOUGLAS MOSUNNY 12 3 67 NW13 30.13S WCI -3  
MAUSTON-NEW LI MOSUNNY 12 4 70 NW14 30.13R WCI -4  
VIROQUA FAIR 10 6 81 NW13 30.13R WCI -5  
WIS DELLS PTSUNNY 13 3 65 NW9 30.12R WCI 0  

 
   
..ELSEWHERE IN WISCONSIN
 
 
 
CITY SKY/WX TMP DP RH WIND PRES REMARKS  
MILWAUKEE MOSUNNY 19 5 54 NW15G25 30.07R WCI 5  
MADISON MOSUNNY 15 4 61 N12G21 30.12R WCI 2  
GREEN BAY CLOUDY 17 7 64 NW14G21 30.06S WCI 3  
EAU CLAIRE NOT AVBL  
BLACK RVR FLS FAIR 12 2 65 NW9 30.16S WCI -1  
MEDFORD PTSUNNY 5 -1 76 N9 30.05F WCI -9  
WAUSAU SUNNY 11 0 61 NW12 30.04F WCI -3  
WIS RAPIDS MOSUNNY 11 2 67 NW13 30.11S WCI -4  
MARSHFIELD SUNNY 8 2 76 NW13 30.07F WCI -8  
RICE LAKE PTSUNNY 6 2 84 CALM 30.15F  

 
   
..NORTHEAST IOWA
 
 
 
CITY SKY/WX TMP DP RH WIND PRES REMARKS  
WATERLOO MOSUNNY 16 6 65 NW13 30.24R WCI 2  
DUBUQUE SUNNY 15 7 70 NW16 30.16R WCI -1  
DECORAH MOSUNNY 12 5 73 NW7 30.16F WCI 2  
MASON CITY NOT AVBL  
CHARLES CITY SUNNY 14 7 73 NW8 30.22S WCI 3  
OELWEIN MOSUNNY 16 9 73 NW14 30.21R WCI 1  

 
   
..ELSEWHERE IN IOWA
 
 
 
CITY SKY/WX TMP DP RH WIND PRES REMARKS  
DES MOINES PTSUNNY 20 9 62 NW9 30.28F WCI 9  
IOWA CITY MOSUNNY 20 9 62 NW13 30.26R WCI 7  
FORT DODGE MOSUNNY 19 11 70 W10 30.25S WCI 7  
MARSHALLTOWN MOSUNNY 17 8 67 W14 30.25R WCI 3  
CEDAR RAPIDS MOSUNNY 17 9 70 NW16 30.22R WCI 2  

 
   
..NORTHERN ILLINOIS
 
 
 
CITY SKY/WX TMP DP RH WIND PRES REMARKS  
CHICAGO-OHARE MOSUNNY 19 6 57 NW21G30 30.09S WCI 3  
CHICAGO-MIDWAY MOSUNNY 20 7 57 N21 30.10S WCI 4  
MOLINE SUNNY 22 12 65 W15 30.21R WCI 9  
ROCKFORD MOSUNNY 17 8 67 N14 30.15R WCI 3  
PEORIA SUNNY 23 8 52 NW12G22 30.20R WCI 12  

 
 
NOTE: "FAIR" INDICATES FEW OR NO CLOUDS BELOW 12,000 FEET WITH NO  
SIGNIFICANT WEATHER AND/OR OBSTRUCTIONS TO VISIBILITY. WIND  
SPEEDS ARE IN MILES-PER-HOUR.  
 
 
CLICK HERE TO GO TO PREVIOUS BULLETINS.

The Nexlab WI Page
The Nexlab IA Page
The Nexlab MN Page Main Text Page